Location: Newark
(44.9000°N, 9.6000°E)
Time: 04:43:26
(UTC+00:00)

N. Korean satellite - Visible Passes

Search period start: 24 January 2020 00:00
Search period end: 03 February 2020 00:00
Orbit: 454 x 507 km, 97.2° (Epoch: 23 January)

Date Brightness Start Highest point End Pass type
(mag) Time Alt. Az. Time Alt. Az. Time Alt. Az.
24 Jan 8.7 04:36:58 10° NE 04:40:05 27° E 04:43:12 10° SSE visible
24 Jan 7.9 06:10:38 10° NNW 06:13:18 20° WNW 06:16:01 10° WSW visible
24 Jan 8.3 16:47:17 10° SSW 16:50:29 36° W 16:53:41 10° NNW visible
25 Jan 9.8 04:12:23 10° ENE 04:14:25 14° E 04:16:26 10° SE visible
25 Jan 7.0 05:44:37 10° N 05:47:58 39° WNW 05:51:20 10° SW visible
26 Jan 6.4 05:18:56 10° N 05:22:31 84° WNW 05:26:09 10° SSW visible
26 Jan 10.1 17:31:57 10° WSW 17:33:07 11° W 17:34:18 10° WNW visible
27 Jan 7.7 04:53:32 10° NNE 04:57:00 45° E 05:00:30 10° S visible
27 Jan 9.3 17:04:39 10° SSW 17:07:24 23° W 17:10:11 10° NW visible
28 Jan 9.1 04:28:31 10° NE 04:31:24 22° E 04:34:19 10° SSE visible
28 Jan 7.6 06:01:45 10° NNW 06:04:44 25° WNW 06:07:45 10° SW visible
29 Jan 10.1 04:04:23 10° ENE 04:05:42 12° E 04:07:02 10° ESE visible
29 Jan 6.7 05:35:52 10° N 05:39:21 50° WNW 05:42:53 10° SSW visible
30 Jan 6.7 05:10:16 10° NNE 05:13:54 76° ESE 05:17:33 10° S visible
30 Jan 9.8 17:22:25 10° SW 17:24:22 14° W 17:26:21 10° WNW visible
31 Jan 8.3 04:44:58 10° NNE 04:48:21 35° E 04:51:45 10° SSE visible
31 Jan 8.9 16:55:40 10° SSW 16:58:41 29° W 17:01:44 10° NW visible
01 Feb 9.5 04:20:05 10° NE 04:22:42 18° E 04:25:19 10° SE visible
01 Feb 7.3 05:52:54 10° N 05:56:09 31° WNW 05:59:25 10° SW visible
02 Feb 6.5 05:27:07 10° N 05:30:44 65° WNW 05:34:22 10° SSW visible
